Time,TemperatureF,DewpointF,PressureIn,WindDirection,WindDirectionDegrees,WindSpeedMPH,WindSpeedGustMPH,Humidity,HourlyPrecipIn,Conditions,Clouds,dailyrainin,SoftwareType,DateUTC
2013-02-06 00:01:00,51.0,48.0,29.89,ENE,76,0.0,-999.0,91,-99.99,,,-99.99,,2013-02-06 08:01:00,
2013-02-06 00:11:00,51.0,48.0,29.89,ENE,76,0.0,-999.0,91,-99.99,,,-99.99,,2013-02-06 08:11:00,
2013-02-06 00:21:00,52.0,49.0,29.88,ENE,76,0.0,-999.0,91,-99.99,,,-99.99,,2013-02-06 08:21:00,
2013-02-06 00:31:00,52.0,49.0,29.88,ENE,76,0.0,-999.0,91,-99.99,,,-99.99,,2013-02-06 08:31:00,
2013-02-06 00:41:00,52.0,49.0,29.88,ENE,76,0.0,-999.0,91,-99.99,,,-99.99,,2013-02-06 08:41:00,
2013-02-06 00:53:00,51.0,48.0,29.89,ENE,76,0.0,-999.0,91,-99.99,,,-99.99,,2013-02-06 08:53:00,
2013-02-06 01:01:00,51.0,48.0,29.90,ENE,76,0.0,-999.0,91,-99.99,,,-99.99,,2013-02-06 09:01:00,
2013-02-06 01:11:00,51.0,48.0,29.90,ENE,76,0.0,-999.0,91,-99.99,,,-99.99,,2013-02-06 09:11:00,
2013-02-06 01:21:00,51.0,48.0,29.90,ENE,76,0.0,-999.0,91,-99.99,,,-99.99,,2013-02-06 09:21:00,
2013-02-06 01:31:00,51.0,49.0,29.90,ENE,76,0.0,-999.0,92,-99.99,,,-99.99,,2013-02-06 09:31:00,
2013-02-06 01:41:00,51.0,49.0,29.90,ENE,76,0.0,-999.0,92,-99.99,,,-99.99,,2013-02-06 09:41:00,
2013-02-06 01:52:00,51.0,49.0,29.90,ENE,76,0.0,-999.0,92,-99.99,,,-99.99,,2013-02-06 09:52:00,
2013-02-06 02:01:00,51.0,49.0,29.90,ENE,76,0.0,-999.0,92,-99.99,,,-99.99,,2013-02-06 10:01:00,
2013-02-06 02:11:00,51.0,49.0,29.90,ENE,76,0.0,-999.0,92,-99.99,,,-99.99,,2013-02-06 10:11:00,
2013-02-06 02:21:00,51.0,49.0,29.90,ENE,76,0.0,-999.0,92,-99.99,,,-99.99,,2013-02-06 10:21:00,
2013-02-06 02:31:00,51.0,48.0,29.89,ENE,76,0.0,-999.0,91,-99.99,,,-99.99,,2013-02-06 10:31:00,
2013-02-06 02:41:00,51.0,48.0,29.89,ENE,76,0.0,-999.0,91,-99.99,,,-99.99,,2013-02-06 10:41:00,
2013-02-06 02:52:00,51.0,48.0,29.89,ENE,76,0.0,-999.0,91,-99.99,,,-99.99,,2013-02-06 10:52:00,
2013-02-06 03:01:00,51.0,48.0,29.89,ENE,76,0.0,-999.0,91,-99.99,,,-99.99,,2013-02-06 11:01:00,
2013-02-06 03:11:00,51.0,48.0,29.89,ENE,76,0.0,-999.0,91,-99.99,,,-99.99,,2013-02-06 11:11:00,
2013-02-06 03:21:00,51.0,48.0,29.88,ENE,76,0.0,-999.0,91,-99.99,,,-99.99,,2013-02-06 11:21:00,
2013-02-06 03:31:00,51.0,48.0,29.87,ENE,76,0.0,-999.0,91,-99.99,,,-99.99,,2013-02-06 11:31:00,
2013-02-06 03:41:00,51.0,48.0,29.87,ENE,76,0.0,-999.0,91,-99.99,,,-99.99,,2013-02-06 11:41:00,
2013-02-06 03:52:00,51.0,48.0,29.87,ENE,76,0.0,-999.0,91,-99.99,,,-99.99,,2013-02-06 11:52:00,
2013-02-06 04:01:00,51.0,48.0,29.88,ENE,76,0.0,-999.0,91,-99.99,,,-99.99,,2013-02-06 12:01:00,
2013-02-06 04:12:00,51.0,48.0,29.88,ENE,76,0.0,-999.0,91,-99.99,,,-99.99,,2013-02-06 12:12:00,
2013-02-06 04:21:00,51.0,48.0,29.88,ENE,76,0.0,-999.0,91,-99.99,,,-99.99,,2013-02-06 12:21:00,
2013-02-06 04:32:00,51.0,48.0,29.88,ENE,76,0.0,-999.0,91,-99.99,,,-99.99,,2013-02-06 12:32:00,
2013-02-06 04:41:00,51.0,48.0,29.88,ENE,76,0.0,-999.0,91,-99.99,,,-99.99,,2013-02-06 12:41:00,
2013-02-06 04:52:00,50.0,47.0,29.88,ENE,76,0.0,-999.0,91,-99.99,,,-99.99,,2013-02-06 12:52:00,
2013-02-06 05:01:00,50.0,47.0,29.88,ENE,76,0.0,-999.0,90,-99.99,,,-99.99,,2013-02-06 13:01:00,
2013-02-06 05:11:00,50.0,47.0,29.88,ENE,76,0.0,-999.0,90,-99.99,,,-99.99,,2013-02-06 13:11:00,
2013-02-06 05:21:00,50.0,47.0,29.89,ENE,76,0.0,-999.0,89,-99.99,,,-99.99,,2013-02-06 13:21:00,
2013-02-06 05:31:00,49.0,46.0,29.89,ENE,76,0.0,-999.0,88,-99.99,,,-99.99,,2013-02-06 13:31:00,
2013-02-06 05:41:00,49.0,46.0,29.89,ENE,76,0.0,-999.0,88,-99.99,,,-99.99,,2013-02-06 13:41:00,
2013-02-06 05:52:00,48.0,44.0,29.89,ENE,76,0.0,-999.0,86,-99.99,,,-99.99,,2013-02-06 13:52:00,
2013-02-06 06:01:00,47.0,43.0,29.89,ENE,76,0.0,-999.0,86,-99.99,,,-99.99,,2013-02-06 14:01:00,
2013-02-06 06:11:00,47.0,43.0,29.89,ENE,76,0.0,-999.0,86,-99.99,,,-99.99,,2013-02-06 14:11:00,
2013-02-06 06:21:00,47.0,43.0,29.89,ENE,76,0.0,-999.0,86,-99.99,,,-99.99,,2013-02-06 14:21:00,
2013-02-06 06:31:00,46.0,42.0,29.89,ENE,76,0.0,-999.0,86,-99.99,,,-99.99,,2013-02-06 14:31:00,
2013-02-06 06:41:00,46.0,42.0,29.89,ENE,76,0.0,-999.0,86,-99.99,,,-99.99,,2013-02-06 14:41:00,
2013-02-06 06:52:00,45.0,41.0,29.89,ENE,76,0.0,-999.0,87,-99.99,,,-99.99,,2013-02-06 14:52:00,
2013-02-06 07:01:00,45.0,41.0,29.90,ENE,76,0.0,-999.0,87,-99.99,,,-99.99,,2013-02-06 15:01:00,
2013-02-06 07:11:00,45.0,41.0,29.90,ENE,76,0.0,-999.0,87,-99.99,,,-99.99,,2013-02-06 15:11:00,
2013-02-06 07:21:00,44.0,41.0,29.90,ENE,76,0.0,-999.0,88,-99.99,,,-99.99,,2013-02-06 15:21:00,
2013-02-06 07:31:00,44.0,41.0,29.91,ENE,76,0.0,-999.0,88,-99.99,,,-99.99,,2013-02-06 15:31:00,
2013-02-06 07:41:00,44.0,41.0,29.91,ENE,76,0.0,-999.0,88,-99.99,,,-99.99,,2013-02-06 15:41:00,
2013-02-06 07:52:00,44.0,41.0,29.92,ENE,76,0.0,-999.0,88,-99.99,,,-99.99,,2013-02-06 15:52:00,
2013-02-06 08:01:00,44.0,41.0,29.92,ENE,76,0.0,-999.0,88,-99.99,,,-99.99,,2013-02-06 16:01:00,
2013-02-06 08:11:00,44.0,41.0,29.92,ENE,76,0.0,-999.0,88,-99.99,,,-99.99,,2013-02-06 16:11:00,
2013-02-06 08:21:00,45.0,41.0,29.93,ENE,76,0.0,-999.0,87,-99.99,,,-99.99,,2013-02-06 16:21:00,
2013-02-06 08:31:00,45.0,41.0,29.93,ENE,76,0.0,-999.0,87,-99.99,,,-99.99,,2013-02-06 16:31:00,
2013-02-06 08:41:00,45.0,41.0,29.93,ENE,76,0.0,-999.0,87,-99.99,,,-99.99,,2013-02-06 16:41:00,
2013-02-06 08:52:00,47.0,43.0,29.94,ENE,76,0.0,-999.0,87,-99.99,,,-99.99,,2013-02-06 16:52:00,
2013-02-06 09:01:00,49.0,45.0,29.94,ENE,76,0.0,-999.0,86,-99.99,,,-99.99,,2013-02-06 17:01:00,
2013-02-06 09:11:00,49.0,45.0,29.94,ENE,76,0.0,-999.0,86,-99.99,,,-99.99,,2013-02-06 17:11:00,
2013-02-06 09:21:00,50.0,45.0,29.94,ENE,75,0.0,-999.0,82,-99.99,,,-99.99,,2013-02-06 17:21:00,
2013-02-06 09:32:00,52.0,46.0,29.94,ENE,75,0.0,-999.0,80,-99.99,,,-99.99,,2013-02-06 17:32:00,
2013-02-06 09:41:00,54.0,46.0,29.94,ENE,74,0.0,-999.0,75,-99.99,,,-99.99,,2013-02-06 17:41:00,
2013-02-06 09:52:00,54.0,46.0,29.94,ENE,74,0.0,-999.0,75,-99.99,,,-99.99,,2013-02-06 17:52:00,
2013-02-06 10:01:00,55.0,47.0,29.94,ENE,78,0.0,-999.0,73,-99.99,,,-99.99,,2013-02-06 18:01:00,
2013-02-06 10:11:00,56.0,47.0,29.94,NE,54,0.0,-999.0,72,-99.99,,,-99.99,,2013-02-06 18:11:00,
2013-02-06 10:22:00,56.0,47.0,29.94,NE,54,0.0,-999.0,72,-99.99,,,-99.99,,2013-02-06 18:22:00,
2013-02-06 10:32:00,57.0,47.0,29.95,NE,55,0.0,-999.0,70,-99.99,,,-99.99,,2013-02-06 18:32:00,
2013-02-06 10:41:00,57.0,47.0,29.95,NE,55,0.0,-999.0,70,-99.99,,,-99.99,,2013-02-06 18:41:00,
2013-02-06 10:52:00,58.0,47.0,29.95,East,101,0.0,-999.0,66,-99.99,,,-99.99,,2013-02-06 18:52:00,
2013-02-06 11:01:00,59.0,46.0,29.94,NE,54,0.0,-999.0,63,-99.99,,,-99.99,,2013-02-06 19:01:00,
2013-02-06 11:11:00,59.0,46.0,29.94,NE,54,0.0,-999.0,63,-99.99,,,-99.99,,2013-02-06 19:11:00,
2013-02-06 11:21:00,60.0,46.0,29.94,East,99,0.0,-999.0,59,-99.99,,,-99.99,,2013-02-06 19:21:00,
2013-02-06 11:31:00,61.0,46.0,29.93,ENE,70,0.0,-999.0,58,-99.99,,,-99.99,,2013-02-06 19:31:00,
2013-02-06 11:41:00,61.0,46.0,29.93,ENE,70,0.0,-999.0,58,-99.99,,,-99.99,,2013-02-06 19:41:00,
2013-02-06 11:52:00,62.0,47.0,29.93,East,96,0.0,-999.0,57,-99.99,,,-99.99,,2013-02-06 19:52:00,
2013-02-06 12:01:00,63.0,48.0,29.92,ENE,71,0.0,-999.0,58,-99.99,,,-99.99,,2013-02-06 20:01:00,
2013-02-06 12:11:00,63.0,47.0,29.91,ESE,105,0.0,-999.0,55,-99.99,,,-99.99,,2013-02-06 20:11:00,
2013-02-06 12:21:00,63.0,47.0,29.91,ESE,105,0.0,-999.0,55,-99.99,,,-99.99,,2013-02-06 20:21:00,
2013-02-06 12:31:00,63.0,47.0,29.91,ESE,107,0.0,-999.0,55,-99.99,,,-99.99,,2013-02-06 20:31:00,
2013-02-06 12:41:00,63.0,47.0,29.91,ESE,107,0.0,-999.0,55,-99.99,,,-99.99,,2013-02-06 20:41:00,
2013-02-06 12:52:00,64.0,45.0,29.90,NE,55,0.0,-999.0,51,-99.99,,,-99.99,,2013-02-06 20:52:00,
2013-02-06 13:01:00,65.0,45.0,29.89,ENE,65,0.0,-999.0,48,-99.99,,,-99.99,,2013-02-06 21:01:00,
2013-02-06 13:11:00,65.0,45.0,29.89,ENE,65,0.0,-999.0,48,-99.99,,,-99.99,,2013-02-06 21:11:00,
2013-02-06 13:21:00,65.0,45.0,29.89,ENE,57,0.0,-999.0,48,-99.99,,,-99.99,,2013-02-06 21:21:00,
2013-02-06 13:31:00,66.0,45.0,29.88,ENE,65,0.0,-999.0,47,-99.99,,,-99.99,,2013-02-06 21:31:00,
2013-02-06 13:41:00,66.0,45.0,29.88,ENE,65,0.0,-999.0,47,-99.99,,,-99.99,,2013-02-06 21:41:00,
2013-02-06 13:52:00,66.0,45.0,29.88,ENE,65,0.0,-999.0,47,-99.99,,,-99.99,,2013-02-06 21:52:00,
2013-02-06 14:01:00,67.0,46.0,29.88,ESE,116,1.0,-999.0,47,-99.99,,,-99.99,,2013-02-06 22:01:00,
2013-02-06 14:11:00,67.0,46.0,29.88,ESE,116,1.0,-999.0,47,-99.99,,,-99.99,,2013-02-06 22:11:00,
2013-02-06 14:21:00,67.0,46.0,29.87,East,85,0.0,-999.0,46,-99.99,,,-99.99,,2013-02-06 22:21:00,
2013-02-06 14:31:00,67.0,46.0,29.88,ESE,111,0.0,-999.0,47,-99.99,,,-99.99,,2013-02-06 22:31:00,
2013-02-06 14:41:00,67.0,46.0,29.88,ESE,111,0.0,-999.0,47,-99.99,,,-99.99,,2013-02-06 22:41:00,
2013-02-06 14:52:00,67.0,47.0,29.87,East,95,1.0,-999.0,48,-99.99,,,-99.99,,2013-02-06 22:52:00,
2013-02-06 15:01:00,67.0,47.0,29.88,East,91,1.0,-999.0,48,-99.99,,,-99.99,,2013-02-06 23:01:00,
2013-02-06 15:11:00,67.0,47.0,29.88,East,91,1.0,-999.0,48,-99.99,,,-99.99,,2013-02-06 23:11:00,
2013-02-06 15:21:00,67.0,47.0,29.88,NE,44,0.0,-999.0,48,-99.99,,,-99.99,,2013-02-06 23:21:00,
2013-02-06 15:31:00,67.0,47.0,29.88,NE,44,0.0,-999.0,48,-99.99,,,-99.99,,2013-02-06 23:31:00,
2013-02-06 15:41:00,67.0,47.0,29.88,NE,44,0.0,-999.0,48,-99.99,,,-99.99,,2013-02-06 23:41:00,
2013-02-06 15:52:00,66.0,46.0,29.88,NE,42,1.0,-999.0,48,-99.99,,,-99.99,,2013-02-06 23:52:00,
2013-02-06 16:01:00,66.0,46.0,29.88,ESE,103,0.0,-999.0,48,-99.99,,,-99.99,,2013-02-07 00:01:00,
2013-02-06 16:11:00,66.0,46.0,29.88,ESE,103,0.0,-999.0,48,-99.99,,,-99.99,,2013-02-07 00:11:00,
2013-02-06 16:21:00,64.0,44.0,29.88,ESE,102,1.0,-999.0,49,-99.99,,,-99.99,,2013-02-07 00:21:00,
2013-02-06 16:31:00,64.0,44.0,29.88,ESE,102,1.0,-999.0,49,-99.99,,,-99.99,,2013-02-07 00:31:00,
2013-02-06 16:41:00,64.0,44.0,29.88,ESE,102,1.0,-999.0,49,-99.99,,,-99.99,,2013-02-07 00:41:00,
2013-02-06 16:52:00,63.0,45.0,29.89,ESE,108,0.0,-999.0,52,-99.99,,,-99.99,,2013-02-07 00:52:00,
2013-02-06 17:01:00,60.0,45.0,29.90,NE,49,0.0,-999.0,57,-99.99,,,-99.99,,2013-02-07 01:01:00,
2013-02-06 17:11:00,60.0,45.0,29.90,NE,49,0.0,-999.0,57,-99.99,,,-99.99,,2013-02-07 01:11:00,
2013-02-06 17:21:00,59.0,45.0,29.90,ESE,114,0.0,-999.0,60,-99.99,,,-99.99,,2013-02-07 01:21:00,
2013-02-06 17:31:00,58.0,45.0,29.91,ESE,115,0.0,-999.0,63,-99.99,,,-99.99,,2013-02-07 01:31:00,
2013-02-06 17:41:00,58.0,45.0,29.91,ESE,115,0.0,-999.0,63,-99.99,,,-99.99,,2013-02-07 01:41:00,
2013-02-06 17:52:00,57.0,46.0,29.91,ESE,115,0.0,-999.0,66,-99.99,,,-99.99,,2013-02-07 01:52:00,
2013-02-06 18:01:00,56.0,45.0,29.91,ESE,115,0.0,-999.0,67,-99.99,,,-99.99,,2013-02-07 02:01:00,
2013-02-06 18:11:00,56.0,45.0,29.91,ESE,115,0.0,-999.0,67,-99.99,,,-99.99,,2013-02-07 02:11:00,
2013-02-06 18:21:00,55.0,45.0,29.91,ESE,115,0.0,-999.0,69,-99.99,,,-99.99,,2013-02-07 02:21:00,
2013-02-06 18:31:00,54.0,45.0,29.92,ESE,115,0.0,-999.0,71,-99.99,,,-99.99,,2013-02-07 02:31:00,
2013-02-06 18:41:00,54.0,45.0,29.92,ESE,115,0.0,-999.0,71,-99.99,,,-99.99,,2013-02-07 02:41:00,
2013-02-06 18:51:00,54.0,45.0,29.92,ESE,115,0.0,-999.0,71,-99.99,,,-99.99,,2013-02-07 02:51:00,
2013-02-06 19:01:00,51.0,43.0,29.92,ESE,115,0.0,-999.0,75,-99.99,,,-99.99,,2013-02-07 03:01:00,
2013-02-06 19:11:00,51.0,43.0,29.92,ESE,115,0.0,-999.0,75,-99.99,,,-99.99,,2013-02-07 03:11:00,
2013-02-06 19:21:00,51.0,43.0,29.92,ESE,115,0.0,-999.0,75,-99.99,,,-99.99,,2013-02-07 03:21:00,
2013-02-06 19:31:00,50.0,43.0,29.93,WSW,241,0.0,-999.0,77,-99.99,,,-99.99,,2013-02-07 03:31:00,
2013-02-06 19:41:00,50.0,43.0,29.93,WSW,241,0.0,-999.0,77,-99.99,,,-99.99,,2013-02-07 03:41:00,
2013-02-06 19:52:00,49.0,42.0,29.93,WSW,246,0.0,-999.0,78,-99.99,,,-99.99,,2013-02-07 03:52:00,
2013-02-06 20:01:00,49.0,43.0,29.94,WSW,246,0.0,-999.0,79,-99.99,,,-99.99,,2013-02-07 04:01:00,
2013-02-06 20:11:00,49.0,43.0,29.94,WSW,246,0.0,-999.0,79,-99.99,,,-99.99,,2013-02-07 04:11:00,
2013-02-06 20:22:00,49.0,43.0,29.95,WSW,248,0.0,-999.0,80,-99.99,,,-99.99,,2013-02-07 04:22:00,
2013-02-06 20:31:00,48.0,42.0,29.95,WSW,248,0.0,-999.0,80,-99.99,,,-99.99,,2013-02-07 04:31:00,
2013-02-06 20:41:00,48.0,42.0,29.95,WSW,248,0.0,-999.0,80,-99.99,,,-99.99,,2013-02-07 04:41:00,
2013-02-06 20:53:00,48.0,42.0,29.96,WSW,248,0.0,-999.0,81,-99.99,,,-99.99,,2013-02-07 04:53:00,
2013-02-06 21:01:00,47.0,41.0,29.96,WSW,248,0.0,-999.0,81,-99.99,,,-99.99,,2013-02-07 05:01:00,
2013-02-06 21:11:00,47.0,41.0,29.96,WSW,248,0.0,-999.0,81,-99.99,,,-99.99,,2013-02-07 05:11:00,
2013-02-06 21:21:00,47.0,42.0,29.96,WSW,248,0.0,-999.0,82,-99.99,,,-99.99,,2013-02-07 05:21:00,
2013-02-06 21:31:00,47.0,42.0,29.96,WSW,248,0.0,-999.0,82,-99.99,,,-99.99,,2013-02-07 05:31:00,
2013-02-06 21:42:00,47.0,42.0,29.96,WSW,248,0.0,-999.0,82,-99.99,,,-99.99,,2013-02-07 05:42:00,
2013-02-06 21:52:00,47.0,42.0,29.96,WSW,248,0.0,-999.0,82,-99.99,,,-99.99,,2013-02-07 05:52:00,
2013-02-06 22:01:00,46.0,41.0,29.97,WSW,248,0.0,-999.0,82,-99.99,,,-99.99,,2013-02-07 06:01:00,
2013-02-06 22:11:00,46.0,41.0,29.97,WSW,248,0.0,-999.0,82,-99.99,,,-99.99,,2013-02-07 06:11:00,
2013-02-06 22:22:00,46.0,41.0,29.97,WSW,248,0.0,-999.0,83,-99.99,,,-99.99,,2013-02-07 06:22:00,
2013-02-06 22:31:00,46.0,41.0,29.97,WSW,248,0.0,-999.0,83,-99.99,,,-99.99,,2013-02-07 06:31:00,
2013-02-06 22:42:00,46.0,41.0,29.97,WSW,248,0.0,-999.0,83,-99.99,,,-99.99,,2013-02-07 06:42:00,
2013-02-06 22:52:00,45.0,40.0,29.98,WSW,248,0.0,-999.0,83,-99.99,,,-99.99,,2013-02-07 06:52:00,
2013-02-06 23:01:00,45.0,40.0,29.98,WSW,248,0.0,-999.0,84,-99.99,,,-99.99,,2013-02-07 07:01:00,
2013-02-06 23:11:00,45.0,41.0,29.98,WSW,248,0.0,-999.0,86,-99.99,,,-99.99,,2013-02-07 07:11:00,
2013-02-06 23:21:00,45.0,41.0,29.98,WSW,248,0.0,-999.0,86,-99.99,,,-99.99,,2013-02-07 07:21:00,
2013-02-06 23:31:00,45.0,41.0,29.98,WSW,248,0.0,-999.0,86,-99.99,,,-99.99,,2013-02-07 07:31:00,
2013-02-06 23:41:00,45.0,41.0,29.98,WSW,248,0.0,-999.0,86,-99.99,,,-99.99,,2013-02-07 07:41:00,
2013-02-06 23:52:00,44.0,40.0,29.98,WSW,248,0.0,-999.0,85,-99.99,,,-99.99,,2013-02-07 07:52:00,